Simultaneous Nadir Overpasses (SNOs) Predictions

Prediction of SNOs between METOP-B and TERRA Satellite Orbit:

Table of predicted SNOs for the next 14.0 days since TLE Epoch: 4/6/2018
Index Date (METOP-B) Time (METOP-B) Lat,Lon (METOP-B) SZA (METOP-B ) Date (TERRA) Time (TERRA) Lat,Lon (TERRA) SZA (TERRA ) Distance(km) Time Diff (sec)
1 04/09/2018 14:24:49 81.34, 11.82 76.49 04/09/2018 14:24:58 81.35, 11.95 76.52 2.30 9
2 04/09/2018 15:15:29 -81.34, 179.39 103.50 04/09/2018 15:14:25 -81.34, 179.51 103.51 2.15 64
3 04/12/2018 09:59:10 81.34, 78.30 75.49 04/12/2018 09:59:17 81.34, 78.33 75.50 0.57 7
4 04/12/2018 10:49:50 -81.34,-114.09 104.49 04/12/2018 10:48:44 -81.34,-114.08 104.52 0.30 66
5 04/15/2018 05:33:31 81.34, 144.77 74.51 04/15/2018 05:33:36 81.34, 144.75 74.51 0.41 5
6 04/15/2018 06:24:11 -81.35, -47.57 105.47 04/15/2018 06:23:03 -81.34, -47.64 105.51 1.24 68
7 04/18/2018 01:07:51 81.34,-148.77 73.55 04/18/2018 01:07:54 81.35,-148.78 73.55 0.51 3
8 04/18/2018 01:58:31 -81.35, 18.94 106.42 04/18/2018 01:57:21 -81.35, 18.85 106.47 1.49 70
9 04/20/2018 19:51:48 -81.22, 103.95 108.18 04/20/2018 19:53:02 -81.01, 104.51 108.24 25.26 74
10 04/20/2018 20:42:12 81.34, -82.32 72.60 04/20/2018 20:42:13 81.35, -82.26 72.62 1.40 1




NCC Satellite Simultaneous Nadir Overpasses (SNOs) Prediction Service
